DMSP 5D-3 F16 DEB

基本信息
目录编号:
28080
目录名称:
DMSP 5D-3 F16 DEB
国际标识:
2003-048D
轨道中心:
EARTH
物体状态:
在轨
发射日期:
2003-10-18 UTC
轨道信息
数据来源: 国际轨道数据
星历时间: 2026-07-13T20:19:44+0800
半长轴: 7134.964km
偏心率: 0.0005486
轨道倾角: 98.596°
近地点辐角: 24.698°
升交点赤经: 193.730°
平近点角: 335.447°
近地点: 752.912km
远地点: 760.742km
周期: 99.965分钟
每日圈数: 14.405062
详细信息
发射场:
AFWTR
轨道高度:
LEO
数据来源:
AOE Integration Group
参考系:
TEME
时间系统:
UTC
历元类型:
SGP4
2D轨道图
3D轨道图
轨道高度分析图
轨道倾角分析图
轨道综合分析图
查看轨道综合分析图